LIC0032 GCXO-LEZL

Flight info

Callsign LIC0032
Flight time 1h 52m
Altitude 38000
Route VASTO UN858 AKUDA DCT PESAS N858 OSLEP
Aircraft A320/M-SDE3FGHIRWY/LB1

Departure

Time 2026-04-26 18:20
Airport Tenerife Norte-Ciudad de La Laguna Airport (GCXO)

Arrival

Time 2026-04-26 20:12
Airport Seville Airport (LEZL)
Time Latitude Longitude Altitude Speed Heading
2026-04-26 18:03 28.48668 -16.34624 2033 ft 0 kts 20°
2026-04-26 18:10 28.48666 -16.34624 2033 ft 1 kts 20°
2026-04-26 18:11 28.48652 -16.34631 2040 ft 3 kts 20°
2026-04-26 18:11 28.48635 -16.34638 2036 ft 3 kts 20°
2026-04-26 18:11 28.48618 -16.34645 2039 ft 3 kts 20°
2026-04-26 18:11 28.48601 -16.34652 2040 ft 3 kts 20°
2026-04-26 18:12 28.48584 -16.34659 2040 ft 3 kts 20°
2026-04-26 18:12 28.48567 -16.34669 2039 ft 3 kts 54°
2026-04-26 18:12 28.48560 -16.34688 2037 ft 3 kts 91°
2026-04-26 18:12 28.48560 -16.34699 2033 ft 0 kts 108°
2026-04-26 18:14 28.48559 -16.34695 2036 ft 2 kts 108°
2026-04-26 18:14 28.48549 -16.34660 2039 ft 8 kts 109°
2026-04-26 18:14 28.48521 -16.34574 2032 ft 14 kts 110°
2026-04-26 18:15 28.48484 -16.34464 2034 ft 15 kts 110°
2026-04-26 18:15 28.48449 -16.34356 2029 ft 14 kts 111°
2026-04-26 18:15 28.48414 -16.34253 2033 ft 17 kts 111°
2026-04-26 18:15 28.48359 -16.34085 2034 ft 27 kts 110°
2026-04-26 18:16 28.48297 -16.33899 2036 ft 22 kts 111°
2026-04-26 18:16 28.48195 -16.33590 2030 ft 20 kts 111°
2026-04-26 18:16 28.48148 -16.33449 2028 ft 19 kts 110°
2026-04-26 18:17 28.48094 -16.33284 2026 ft 23 kts 110°
2026-04-26 18:17 28.48041 -16.33124 2032 ft 20 kts 110°
2026-04-26 18:17 28.47982 -16.32947 2030 ft 28 kts 110°
2026-04-26 18:17 28.47920 -16.32758 2037 ft 23 kts 111°
2026-04-26 18:18 28.47868 -16.32611 2037 ft 15 kts 116°
2026-04-26 18:18 28.47798 -16.32539 2034 ft 12 kts 159°
2026-04-26 18:18 28.47737 -16.32551 2037 ft 7 kts 237°
2026-04-26 18:18 28.47749 -16.32598 2037 ft 0 kts 291°
2026-04-26 18:19 28.47752 -16.32605 2035 ft 9 kts 292°
2026-04-26 18:19 28.47870 -16.32955 2027 ft 86 kts 290°
2026-04-26 18:20 28.48157 -16.33824 2030 ft 146 kts 291°
2026-04-26 18:20 28.48543 -16.34933 2622 ft 149 kts 295°
2026-04-26 18:20 28.48921 -16.36058 3249 ft 156 kts 295°
2026-04-26 18:20 28.49184 -16.36852 3513 ft 171 kts 295°
2026-04-26 18:21 28.49809 -16.38695 4063 ft 202 kts 295°
2026-04-26 18:21 28.50378 -16.40245 4465 ft 228 kts 296°
2026-04-26 18:21 28.51010 -16.42002 4978 ft 252 kts 295°
2026-04-26 18:21 28.51687 -16.43924 5673 ft 268 kts 294°
2026-04-26 18:22 28.52378 -16.45919 6597 ft 274 kts 293°
2026-04-26 18:22 28.53076 -16.47958 7499 ft 279 kts 292°
2026-04-26 18:22 28.53783 -16.50032 8407 ft 284 kts 292°
2026-04-26 18:22 28.54608 -16.52053 9294 ft 288 kts 304°
2026-04-26 18:23 28.55960 -16.53734 10147 ft 292 kts 323°
2026-04-26 18:23 28.57761 -16.54828 10819 ft 302 kts 342°
2026-04-26 18:23 28.59912 -16.55165 11120 ft 325 kts
2026-04-26 18:23 28.62148 -16.54501 11582 ft 341 kts 26°
2026-04-26 18:24 28.64045 -16.52865 12289 ft 348 kts 49°
2026-04-26 18:24 28.65244 -16.50473 13030 ft 354 kts 73°
2026-04-26 18:24 28.65483 -16.47684 13777 ft 359 kts 98°
2026-04-26 18:24 28.64651 -16.45006 14449 ft 364 kts 123°
2026-04-26 18:25 28.62930 -16.42898 15130 ft 367 kts 140°
2026-04-26 18:25 28.61092 -16.40923 15822 ft 370 kts 133°
2026-04-26 18:25 28.59502 -16.38607 16507 ft 374 kts 122°
2026-04-26 18:25 28.58169 -16.36050 17203 ft 377 kts 120°
2026-04-26 18:26 28.56864 -16.33446 17887 ft 381 kts 120°
2026-04-26 18:26 28.55642 -16.30758 18546 ft 385 kts 112°
2026-04-26 18:26 28.54881 -16.27833 19141 ft 388 kts 100°
2026-04-26 18:26 28.54652 -16.24766 19757 ft 391 kts 89°
2026-04-26 18:27 28.54960 -16.21685 20361 ft 395 kts 78°
2026-04-26 18:27 28.55652 -16.18691 20948 ft 398 kts 75°
2026-04-26 18:27 28.56376 -16.15644 21566 ft 401 kts 75°
2026-04-26 18:27 28.57103 -16.12590 22159 ft 404 kts 76°
2026-04-26 18:28 28.57841 -16.09493 22732 ft 407 kts 76°
2026-04-26 18:28 28.58585 -16.06369 23298 ft 410 kts 76°
2026-04-26 18:28 28.59334 -16.03224 23814 ft 414 kts 76°
2026-04-26 18:28 28.60087 -16.00054 24265 ft 417 kts 76°
2026-04-26 18:29 28.60843 -15.96857 24706 ft 419 kts 76°
2026-04-26 18:29 28.61601 -15.93643 25137 ft 422 kts 76°
2026-04-26 18:29 28.62353 -15.90449 25556 ft 425 kts 76°
2026-04-26 18:29 28.63120 -15.87192 25963 ft 427 kts 76°
2026-04-26 18:30 28.63895 -15.83915 26371 ft 430 kts 76°
2026-04-26 18:30 28.64674 -15.80618 26765 ft 433 kts 76°
2026-04-26 18:30 28.65457 -15.77298 27160 ft 435 kts 76°
2026-04-26 18:30 28.66243 -15.73960 27552 ft 438 kts 76°
2026-04-26 18:31 28.67033 -15.70598 27928 ft 441 kts 76°
2026-04-26 18:31 28.67826 -15.67216 28309 ft 443 kts 76°
2026-04-26 18:31 28.68613 -15.63859 28677 ft 446 kts 76°
2026-04-26 18:31 28.69414 -15.60438 29023 ft 448 kts 76°
2026-04-26 18:32 28.70220 -15.56994 29374 ft 451 kts 76°
2026-04-26 18:32 28.71029 -15.53535 29703 ft 453 kts 76°
2026-04-26 18:32 28.71840 -15.50055 30039 ft 456 kts 76°
2026-04-26 18:32 28.72656 -15.46554 30303 ft 458 kts 76°
2026-04-26 18:33 28.73473 -15.43040 30547 ft 461 kts 76°
2026-04-26 18:33 28.74298 -15.39495 30770 ft 464 kts 76°
2026-04-26 18:33 28.75127 -15.35933 31000 ft 466 kts 76°
2026-04-26 18:33 28.75947 -15.32401 31205 ft 469 kts 76°
2026-04-26 18:34 28.76779 -15.28804 31430 ft 470 kts 77°
2026-04-26 18:34 28.77611 -15.25202 31762 ft 470 kts 77°
2026-04-26 18:34 28.78442 -15.21602 32081 ft 469 kts 77°
2026-04-26 18:34 28.79271 -15.18003 32385 ft 469 kts 77°
2026-04-26 18:35 28.80100 -15.14405 32699 ft 469 kts 77°
2026-04-26 18:35 28.80929 -15.10810 33014 ft 469 kts 77°
2026-04-26 18:35 28.81755 -15.07212 33330 ft 469 kts 77°
2026-04-26 18:35 28.82580 -15.03613 33644 ft 469 kts 77°
2026-04-26 18:36 28.83391 -15.00061 33950 ft 469 kts 77°
2026-04-26 18:36 28.84211 -14.96457 34234 ft 469 kts 77°
2026-04-26 18:36 28.85031 -14.92857 34502 ft 470 kts 77°
2026-04-26 18:36 28.85985 -14.89290 34752 ft 471 kts 69°
2026-04-26 18:37 28.87424 -14.85927 34999 ft 473 kts 59°
2026-04-26 18:37 28.89333 -14.82874 35240 ft 474 kts 50°
2026-04-26 18:37 28.91667 -14.80212 35477 ft 475 kts 39°
2026-04-26 18:37 28.94342 -14.78002 35711 ft 475 kts 33°
2026-04-26 18:38 28.97062 -14.75953 35935 ft 475 kts 33°
2026-04-26 18:38 28.99822 -14.73873 36169 ft 475 kts 33°
2026-04-26 18:38 29.02580 -14.71786 36395 ft 475 kts 33°
2026-04-26 18:38 29.05334 -14.69697 36621 ft 476 kts 33°
2026-04-26 18:39 29.08090 -14.67605 36843 ft 476 kts 33°
2026-04-26 18:39 29.10846 -14.65511 37059 ft 476 kts 33°
2026-04-26 18:39 29.13604 -14.63417 37271 ft 476 kts 33°
2026-04-26 18:39 29.16362 -14.61323 37477 ft 476 kts 33°
2026-04-26 18:40 29.19083 -14.59255 37679 ft 476 kts 33°
2026-04-26 18:40 29.21837 -14.57161 37884 ft 476 kts 33°
2026-04-26 18:40 29.24600 -14.55060 38019 ft 477 kts 33°
2026-04-26 18:40 29.27358 -14.52955 38035 ft 477 kts 33°
2026-04-26 18:41 29.32864 -14.48738 38029 ft 476 kts 33°
2026-04-26 18:41 29.38375 -14.44523 38031 ft 476 kts 33°
2026-04-26 18:42 29.43889 -14.40315 38030 ft 476 kts 33°
2026-04-26 18:42 29.49367 -14.36131 38030 ft 476 kts 33°
2026-04-26 18:43 29.54880 -14.31913 38033 ft 476 kts 33°
2026-04-26 18:43 29.60390 -14.27676 38035 ft 477 kts 33°
2026-04-26 18:44 29.65902 -14.23427 38036 ft 477 kts 33°
2026-04-26 18:44 29.71376 -14.19209 38040 ft 477 kts 33°
2026-04-26 18:45 29.76886 -14.14952 38039 ft 477 kts 33°
2026-04-26 18:45 29.82400 -14.10696 38035 ft 477 kts 33°
2026-04-26 18:46 29.87920 -14.06440 38036 ft 477 kts 33°
2026-04-26 18:46 29.93432 -14.02163 38038 ft 477 kts 33°
2026-04-26 18:47 29.98909 -13.97918 38038 ft 477 kts 33°
2026-04-26 18:47 30.04423 -13.93649 38039 ft 477 kts 33°
2026-04-26 18:48 30.09931 -13.89370 38035 ft 477 kts 33°
2026-04-26 18:48 30.15434 -13.85078 38036 ft 477 kts 33°
2026-04-26 18:49 30.20897 -13.80809 38031 ft 477 kts 33°
2026-04-26 18:49 30.26396 -13.76514 38031 ft 477 kts 33°
2026-04-26 18:50 30.31820 -13.72272 38032 ft 477 kts 33°
2026-04-26 18:50 30.37256 -13.68024 38035 ft 477 kts 33°
2026-04-26 18:51 30.42705 -13.63759 38034 ft 476 kts 33°
2026-04-26 18:51 30.48194 -13.59452 38032 ft 476 kts 33°
2026-04-26 18:52 30.53672 -13.55129 38028 ft 476 kts 34°
2026-04-26 18:52 30.59131 -13.50778 38022 ft 476 kts 34°
2026-04-26 18:53 30.64589 -13.46430 38022 ft 476 kts 34°
2026-04-26 18:53 30.70000 -13.42113 38019 ft 476 kts 34°
2026-04-26 18:54 30.75460 -13.37756 38020 ft 476 kts 34°
2026-04-26 18:54 30.80929 -13.33385 38023 ft 476 kts 34°
2026-04-26 18:55 30.86379 -13.29023 38015 ft 476 kts 34°
2026-04-26 18:55 30.91784 -13.24676 38022 ft 476 kts 34°
2026-04-26 18:56 30.97243 -13.20314 38025 ft 476 kts 33°
2026-04-26 18:56 31.02723 -13.15980 38022 ft 476 kts 33°
2026-04-26 18:57 31.07285 -13.12363 38020 ft 475 kts 34°
2026-04-26 18:57 31.13669 -13.07283 38017 ft 475 kts 34°
2026-04-26 18:58 31.19070 -13.02957 38016 ft 475 kts 34°
2026-04-26 18:58 31.24523 -12.98583 38015 ft 475 kts 34°
2026-04-26 18:59 31.29997 -12.94216 38016 ft 475 kts 34°
2026-04-26 18:59 31.35456 -12.89853 38012 ft 475 kts 34°
2026-04-26 19:00 31.40865 -12.85512 38012 ft 475 kts 34°
2026-04-26 19:00 31.46316 -12.81123 38012 ft 476 kts 34°
2026-04-26 19:01 31.51766 -12.76726 38005 ft 475 kts 34°
2026-04-26 19:01 31.57215 -12.72327 38010 ft 475 kts 34°
2026-04-26 19:02 31.62657 -12.67926 38015 ft 475 kts 34°
2026-04-26 19:02 31.67192 -12.64264 38014 ft 475 kts 34°
2026-04-26 19:03 31.73497 -12.59175 38011 ft 474 kts 34°
2026-04-26 19:03 31.78930 -12.54770 38010 ft 474 kts 34°
2026-04-26 19:04 31.84356 -12.50356 38010 ft 474 kts 34°
2026-04-26 19:04 31.89772 -12.45940 38008 ft 473 kts 34°
2026-04-26 19:05 31.97853 -12.39357 38009 ft 473 kts 34°
2026-04-26 19:06 32.03270 -12.34951 38012 ft 473 kts 34°
2026-04-26 19:06 32.08689 -12.30547 38015 ft 473 kts 34°
2026-04-26 19:07 32.14095 -12.26129 38012 ft 473 kts 34°
2026-04-26 19:07 32.19458 -12.21748 38008 ft 472 kts 34°
2026-04-26 19:08 32.24860 -12.17325 38010 ft 472 kts 34°
2026-04-26 19:08 32.30263 -12.12904 38009 ft 472 kts 34°
2026-04-26 19:09 32.35670 -12.08487 38009 ft 472 kts 34°
2026-04-26 19:09 32.41067 -12.04045 38011 ft 472 kts 34°
2026-04-26 19:10 32.46416 -11.99633 38009 ft 472 kts 34°
2026-04-26 19:10 32.51807 -11.95198 38005 ft 472 kts 34°
2026-04-26 19:11 32.57197 -11.90757 38007 ft 472 kts 34°
2026-04-26 19:11 32.62582 -11.86310 38004 ft 471 kts 35°
2026-04-26 19:12 32.67958 -11.81850 38004 ft 471 kts 35°
2026-04-26 19:12 32.73286 -11.77423 38007 ft 471 kts 35°
2026-04-26 19:13 32.78663 -11.72969 38007 ft 471 kts 35°
2026-04-26 19:13 32.84036 -11.68495 38003 ft 470 kts 35°
2026-04-26 19:14 32.89346 -11.64070 38001 ft 470 kts 35°
2026-04-26 19:14 32.94707 -11.59611 38001 ft 470 kts 35°
2026-04-26 19:15 33.00061 -11.55142 38001 ft 469 kts 35°
2026-04-26 19:15 33.05404 -11.50669 38000 ft 469 kts 35°
2026-04-26 19:16 33.10743 -11.46194 37996 ft 469 kts 35°
2026-04-26 19:16 33.16041 -11.41753 37995 ft 469 kts 35°
2026-04-26 19:17 33.21374 -11.37266 37999 ft 469 kts 36°
2026-04-26 19:17 33.26693 -11.32753 38003 ft 469 kts 36°
2026-04-26 19:18 33.32011 -11.28218 38001 ft 469 kts 36°
2026-04-26 19:18 33.37279 -11.23741 38006 ft 469 kts 36°
2026-04-26 19:19 33.42596 -11.19211 38004 ft 469 kts 36°
2026-04-26 19:19 33.47914 -11.14678 38014 ft 469 kts 36°
2026-04-26 19:20 33.53221 -11.10145 38006 ft 469 kts 36°
2026-04-26 19:20 33.58529 -11.05605 38007 ft 468 kts 36°
2026-04-26 19:21 33.63784 -11.01099 38019 ft 468 kts 36°
2026-04-26 19:21 33.66428 -10.98830 37916 ft 467 kts 36°
2026-04-26 19:21 33.69074 -10.96564 38004 ft 469 kts 36°
2026-04-26 19:22 33.74388 -10.91999 38015 ft 470 kts 36°
2026-04-26 19:22 33.79698 -10.87423 38018 ft 469 kts 36°
2026-04-26 19:23 33.85006 -10.82844 38014 ft 469 kts 36°
2026-04-26 19:23 33.90305 -10.78269 38015 ft 469 kts 36°
2026-04-26 19:24 33.95600 -10.73694 38014 ft 468 kts 36°
2026-04-26 19:24 34.03534 -10.66825 38012 ft 468 kts 36°
2026-04-26 19:25 34.07926 -10.63012 38009 ft 468 kts 36°
2026-04-26 19:25 34.14060 -10.57671 38008 ft 468 kts 36°
2026-04-26 19:26 34.19343 -10.53067 38012 ft 468 kts 36°
2026-04-26 19:26 34.24624 -10.48463 38012 ft 468 kts 36°
2026-04-26 19:27 34.29904 -10.43853 38015 ft 468 kts 36°
2026-04-26 19:27 34.35187 -10.39233 38017 ft 468 kts 36°
2026-04-26 19:28 34.40460 -10.34611 38021 ft 468 kts 36°
2026-04-26 19:28 34.45733 -10.29976 38021 ft 468 kts 36°
2026-04-26 19:29 34.51001 -10.25347 38025 ft 468 kts 36°
2026-04-26 19:29 34.56268 -10.20702 38023 ft 468 kts 36°
2026-04-26 19:30 34.61526 -10.16052 38022 ft 468 kts 36°
2026-04-26 19:30 34.65903 -10.12199 38022 ft 468 kts 36°
2026-04-26 19:31 34.72067 -10.06791 38021 ft 467 kts 36°
2026-04-26 19:31 34.77340 -10.02162 38027 ft 467 kts 36°
2026-04-26 19:32 34.82602 -9.97523 38030 ft 467 kts 36°
2026-04-26 19:32 34.87856 -9.92877 38027 ft 467 kts 36°
2026-04-26 19:33 34.93107 -9.88226 38029 ft 467 kts 36°
2026-04-26 19:33 34.98359 -9.83573 38031 ft 466 kts 36°
2026-04-26 19:34 35.03605 -9.78916 38039 ft 466 kts 37°
2026-04-26 19:34 35.08842 -9.74252 38033 ft 466 kts 37°
2026-04-26 19:35 35.14071 -9.69595 38035 ft 466 kts 36°
2026-04-26 19:35 35.19277 -9.64955 38037 ft 465 kts 37°
2026-04-26 19:36 35.22771 -9.61831 38041 ft 465 kts 37°
2026-04-26 19:36 35.29722 -9.55609 38041 ft 465 kts 37°
2026-04-26 19:37 35.34936 -9.50936 38047 ft 464 kts 37°
2026-04-26 19:37 35.40146 -9.46257 38036 ft 464 kts 37°
2026-04-26 19:38 35.45352 -9.41575 38042 ft 464 kts 36°
2026-04-26 19:38 35.50555 -9.36893 38039 ft 464 kts 36°
2026-04-26 19:39 35.55748 -9.32203 38048 ft 463 kts 37°
2026-04-26 19:39 35.60941 -9.27513 38051 ft 463 kts 36°
2026-04-26 19:40 35.66130 -9.22818 38046 ft 463 kts 36°
2026-04-26 19:40 35.71311 -9.18116 38050 ft 463 kts 36°
2026-04-26 19:41 35.76487 -9.13411 38046 ft 462 kts 36°
2026-04-26 19:41 35.79951 -9.10265 38051 ft 462 kts 36°
2026-04-26 19:42 35.86831 -9.04001 38051 ft 462 kts 36°
2026-04-26 19:42 35.91990 -8.99281 38054 ft 462 kts 36°
2026-04-26 19:43 35.97021 -8.94368 38049 ft 461 kts 45°
2026-04-26 19:43 36.01261 -8.88425 38049 ft 461 kts 49°
2026-04-26 19:44 36.05444 -8.82425 38049 ft 461 kts 49°
2026-04-26 19:44 36.09630 -8.76415 38048 ft 461 kts 49°
2026-04-26 19:45 36.13807 -8.70402 38050 ft 461 kts 49°
2026-04-26 19:45 36.17981 -8.64384 38049 ft 461 kts 49°
2026-04-26 19:46 36.22151 -8.58363 38051 ft 461 kts 49°
2026-04-26 19:46 36.25616 -8.53352 38054 ft 460 kts 49°
2026-04-26 19:47 36.29068 -8.48337 38059 ft 460 kts 49°
2026-04-26 19:47 36.33919 -8.41282 38053 ft 460 kts 49°
2026-04-26 19:48 36.38068 -8.35247 38051 ft 460 kts 49°
2026-04-26 19:48 36.42216 -8.29207 38049 ft 459 kts 49°
2026-04-26 19:49 36.46358 -8.23169 38052 ft 459 kts 49°
2026-04-26 19:49 36.50490 -8.17125 38049 ft 459 kts 49°
2026-04-26 19:50 36.54620 -8.11072 38054 ft 459 kts 49°
2026-04-26 19:50 36.58746 -8.05020 38054 ft 459 kts 49°
2026-04-26 19:51 36.62868 -7.98960 38055 ft 458 kts 49°
2026-04-26 19:51 36.66982 -7.92901 38052 ft 458 kts 49°
2026-04-26 19:52 36.71095 -7.86829 38050 ft 458 kts 49°
2026-04-26 19:52 36.75172 -7.80789 38051 ft 458 kts 49°
2026-04-26 19:53 36.79276 -7.74700 38050 ft 458 kts 49°
2026-04-26 19:53 36.83381 -7.68614 38054 ft 458 kts 49°
2026-04-26 19:54 36.87490 -7.62522 38054 ft 458 kts 49°
2026-04-26 19:54 36.91586 -7.56418 38052 ft 458 kts 49°
2026-04-26 19:55 36.95672 -7.50306 38054 ft 458 kts 49°
2026-04-26 19:55 36.99768 -7.44172 36951 ft 465 kts 49°
2026-04-26 19:56 37.01855 -7.41046 35862 ft 469 kts 49°
2026-04-26 19:56 37.03951 -7.37907 34867 ft 471 kts 49°
2026-04-26 19:56 37.06053 -7.34774 33662 ft 470 kts 49°
2026-04-26 19:56 37.08169 -7.31638 32337 ft 471 kts 49°
2026-04-26 19:57 37.10273 -7.28522 31215 ft 468 kts 49°
2026-04-26 19:57 37.12363 -7.25416 30191 ft 464 kts 49°
2026-04-26 19:57 37.14420 -7.22348 28950 ft 456 kts 50°
2026-04-26 19:57 37.16150 -7.19072 27747 ft 448 kts 63°
2026-04-26 19:58 37.17247 -7.15456 26623 ft 440 kts 75°
2026-04-26 19:58 37.17958 -7.11758 25511 ft 434 kts 76°
2026-04-26 19:58 37.18653 -7.08105 24450 ft 427 kts 76°
2026-04-26 19:58 37.19335 -7.04513 23414 ft 420 kts 77°
2026-04-26 19:59 37.20002 -7.00978 22303 ft 413 kts 77°
2026-04-26 19:59 37.20657 -6.97504 21275 ft 406 kts 77°
2026-04-26 19:59 37.21300 -6.94088 20306 ft 399 kts 77°
2026-04-26 19:59 37.21930 -6.90734 19373 ft 392 kts 77°
2026-04-26 20:00 37.22545 -6.87437 18473 ft 385 kts 77°
2026-04-26 20:00 37.23151 -6.84188 17474 ft 379 kts 77°
2026-04-26 20:00 37.23747 -6.80993 16485 ft 373 kts 77°
2026-04-26 20:00 37.24334 -6.77844 15519 ft 368 kts 78°
2026-04-26 20:01 37.24913 -6.74736 14597 ft 363 kts 78°
2026-04-26 20:01 37.25483 -6.71671 13666 ft 358 kts 78°
2026-04-26 20:01 37.26047 -6.68647 12702 ft 352 kts 78°
2026-04-26 20:01 37.26596 -6.65684 11835 ft 344 kts 78°
2026-04-26 20:02 37.27124 -6.62817 11310 ft 327 kts 78°
2026-04-26 20:02 37.27624 -6.60112 10905 ft 313 kts 78°
2026-04-26 20:02 37.28109 -6.57486 10432 ft 305 kts 78°
2026-04-26 20:02 37.28421 -6.55795 10299 ft 295 kts 78°
2026-04-26 20:03 37.29018 -6.52534 9877 ft 281 kts 78°
2026-04-26 20:03 37.29449 -6.50169 9711 ft 277 kts 78°
2026-04-26 20:03 37.29880 -6.47819 9586 ft 276 kts 78°
2026-04-26 20:03 37.30312 -6.45471 9266 ft 276 kts 78°
2026-04-26 20:04 37.30741 -6.43129 8791 ft 275 kts 78°
2026-04-26 20:04 37.31169 -6.40785 8307 ft 276 kts 78°
2026-04-26 20:04 37.31594 -6.38449 7901 ft 273 kts 78°
2026-04-26 20:04 37.32016 -6.36122 7479 ft 272 kts 78°
2026-04-26 20:05 37.32438 -6.33805 6991 ft 272 kts 78°
2026-04-26 20:05 37.32856 -6.31505 6624 ft 269 kts 78°
2026-04-26 20:05 37.33269 -6.29221 6180 ft 268 kts 78°
2026-04-26 20:05 37.33679 -6.26941 5717 ft 267 kts 78°
2026-04-26 20:06 37.34084 -6.24683 5099 ft 263 kts 77°
2026-04-26 20:06 37.34489 -6.22447 4470 ft 260 kts 77°
2026-04-26 20:06 37.34905 -6.20254 3988 ft 262 kts 73°
2026-04-26 20:06 37.35693 -6.18201 3518 ft 262 kts 56°
2026-04-26 20:07 37.36930 -6.16556 3267 ft 253 kts 39°
2026-04-26 20:07 37.38274 -6.15245 3202 ft 234 kts 39°
2026-04-26 20:07 37.39484 -6.14049 3118 ft 209 kts 39°
2026-04-26 20:07 37.40574 -6.12953 3030 ft 194 kts 43°
2026-04-26 20:08 37.41357 -6.11666 2985 ft 175 kts 65°
2026-04-26 20:08 37.41678 -6.10304 2898 ft 153 kts 84°
2026-04-26 20:08 37.41702 -6.09027 2772 ft 142 kts 90°
2026-04-26 20:08 37.41710 -6.07807 2623 ft 138 kts 89°
2026-04-26 20:09 37.41717 -6.06608 2455 ft 136 kts 90°
2026-04-26 20:09 37.41724 -6.05428 2290 ft 134 kts 90°
2026-04-26 20:09 37.41730 -6.04262 2110 ft 132 kts 90°
2026-04-26 20:09 37.41735 -6.03107 1937 ft 132 kts 90°
2026-04-26 20:10 37.41741 -6.01957 1768 ft 131 kts 91°
2026-04-26 20:10 37.41746 -6.00810 1595 ft 130 kts 91°
2026-04-26 20:10 37.41752 -5.99669 1419 ft 131 kts 91°
2026-04-26 20:10 37.41757 -5.98527 1247 ft 130 kts 91°
2026-04-26 20:11 37.41762 -5.97389 1078 ft 130 kts 90°
2026-04-26 20:11 37.41767 -5.96248 910 ft 130 kts 90°
2026-04-26 20:11 37.41772 -5.95107 740 ft 130 kts 90°
2026-04-26 20:12 37.41781 -5.92839 395 ft 128 kts 90°
2026-04-26 20:12 37.41785 -5.91719 231 ft 128 kts 90°
2026-04-26 20:12 37.41796 -5.90615 110 ft 120 kts 89°
2026-04-26 20:12 37.41786 -5.89868 108 ft 44 kts 91°
2026-04-26 20:13 37.41792 -5.89611 105 ft 29 kts 89°
2026-04-26 20:13 37.41792 -5.89363 106 ft 28 kts 90°
2026-04-26 20:13 37.41832 -5.89261 105 ft 13 kts
2026-04-26 20:13 37.41902 -5.89299 102 ft 9 kts 329°
2026-04-26 20:14 37.41957 -5.89340 102 ft 10 kts 329°
2026-04-26 20:14 37.42011 -5.89394 101 ft 10 kts 315°
2026-04-26 20:14 37.42057 -5.89453 102 ft 9 kts 314°
2026-04-26 20:14 37.42098 -5.89506 102 ft 8 kts 314°
2026-04-26 20:15 37.42138 -5.89560 101 ft 9 kts 314°
2026-04-26 20:15 37.42182 -5.89617 101 ft 9 kts 314°
2026-04-26 20:15 37.42228 -5.89674 100 ft 8 kts 317°
2026-04-26 20:15 37.42261 -5.89714 100 ft 5 kts 311°
2026-04-26 20:16 37.42264 -5.89745 100 ft 2 kts 255°
2026-04-26 20:16 37.42259 -5.89761 100 ft 2 kts 248°
2026-04-26 20:16 37.42274 -5.89811 100 ft 8 kts 323°
2026-04-26 20:16 37.42296 -5.89842 100 ft 0 kts 333°
2026-04-26 20:17 37.42302 -5.89846 101 ft 0 kts 335°